EN

Hourly Weather La Grange

Today, 26 July, Monday

Time Temperature Precipitation Wind Pressure Humidity
00:00 +26°C° 0 mm 1 mps 741 mmHg 77%
01:00 +26°C° 0 mm 1 mps 741 mmHg 78%
02:00 +23°C° 0 mm 0 mps 741 mmHg 79%
03:00 +23°C° 0 mm 0 mps 741 mmHg 80%
04:00 +24°C° 0 mm 0 mps 741 mmHg 79%
05:00 +24°C° 0 mm 0 mps 741 mmHg 79%
06:00 +26°C° 0 mm 1 mps 741 mmHg 78%
07:00 +29°C° 0 mm 1 mps 742 mmHg 69%
08:00 +31°C° 0 mm 1 mps 742 mmHg 60%
09:00 +33°C° 0 mm 1 mps 742 mmHg 52%
10:00 +35°C° 0 mm 1 mps 742 mmHg 48%
11:00 +36°C° 0 mm 1 mps 741 mmHg 44%
12:00 +37°C° 0 mm 1 mps 741 mmHg 40%
13:00 +35°C° 0 mm 1 mps 741 mmHg 48%
14:00 +34°C° 0 mm 1 mps 740 mmHg 56%
15:00 +32°C° 0 mm 1 mps 740 mmHg 64%
16:00 +31°C° 0 mm 1 mps 740 mmHg 64%
17:00 +31°C° 0 mm 1 mps 740 mmHg 65%
18:00 +31°C° 0 mm 1 mps 740 mmHg 65%
19:00 +30°C° 0.4 mm 1 mps 740 mmHg 71%
20:00 +28°C° 0.4 mm 1 mps 741 mmHg 76%
21:00 +27°C° 0.4 mm 1 mps 741 mmHg 81%
22:00 +27°C° 0.1 mm 1 mps 741 mmHg 82%
23:00 +27°C° 0.1 mm 1 mps 741 mmHg 82%

Tomorrow, 27 July, Tuesday

Time Temperature Precipitation Wind Pressure Humidity
00:00 +24°C° 0.1 mm 0 mps 741 mmHg 82%
01:00 +24°C° 0 mm 0 mps 741 mmHg 83%
02:00 +24°C° 0 mm 0 mps 741 mmHg 84%
03:00 +26°C° 0 mm 1 mps 741 mmHg 85%
04:00 +24°C° 0 mm 0 mps 741 mmHg 85%
05:00 +24°C° 0 mm 0 mps 742 mmHg 85%
06:00 +25°C° 0 mm 0 mps 742 mmHg 84%
07:00 +27°C° 0 mm 0 mps 742 mmHg 74%
08:00 +29°C° 0 mm 0 mps 742 mmHg 64%
09:00 +34°C° 0 mm 1 mps 743 mmHg 54%
10:00 +35°C° 0 mm 1 mps 742 mmHg 50%
11:00 +36°C° 0 mm 1 mps 742 mmHg 46%
12:00 +38°C° 0 mm 2 mps 742 mmHg 42%
13:00 +36°C° 0 mm 1 mps 742 mmHg 48%
14:00 +34°C° 0 mm 1 mps 741 mmHg 53%
15:00 +33°C° 0 mm 1 mps 741 mmHg 58%
16:00 +31°C° 0.5 mm 1 mps 741 mmHg 66%
17:00 +30°C° 0.5 mm 1 mps 742 mmHg 74%
18:00 +28°C° 0.5 mm 1 mps 742 mmHg 82%
19:00 +27°C° 0.9 mm 1 mps 742 mmHg 86%
20:00 +26°C° 0.9 mm 1 mps 742 mmHg 90%
21:00 +26°C° 0.9 mm 1 mps 742 mmHg 93%
22:00 +25°C° 0.1 mm 1 mps 742 mmHg 94%
23:00 +25°C° 0.1 mm 1 mps 742 mmHg 95%

Day after tomorrow, 28 July, Wednesday

Time Temperature Precipitation Wind Pressure Humidity
00:00 +25°C° 0.1 mm 1 mps 742 mmHg 95%
01:00 +25°C° 0 mm 1 mps 742 mmHg 95%
02:00 +24°C° 0 mm 1 mps 742 mmHg 96%
03:00 +24°C° 0 mm 1 mps 742 mmHg 96%
04:00 +25°C° 0 mm 1 mps 742 mmHg 95%
05:00 +25°C° 0 mm 1 mps 742 mmHg 93%
06:00 +25°C° 0 mm 1 mps 743 mmHg 92%
07:00 +28°C° 0.2 mm 1 mps 743 mmHg 82%
08:00 +30°C° 0.2 mm 1 mps 743 mmHg 73%
09:00 +32°C° 0.2 mm 1 mps 743 mmHg 63%
10:00 +34°C° 0 mm 1 mps 743 mmHg 57%
11:00 +35°C° 0 mm 1 mps 743 mmHg 50%
12:00 +37°C° 0 mm 1 mps 742 mmHg 44%
13:00 +36°C° 0.1 mm 1 mps 742 mmHg 51%
14:00 +34°C° 0.1 mm 1 mps 742 mmHg 58%
15:00 +33°C° 0.1 mm 1 mps 741 mmHg 65%
16:00 +32°C° 0 mm 1 mps 741 mmHg 67%
17:00 +31°C° 0 mm 1 mps 741 mmHg 70%
18:00 +30°C° 0 mm 1 mps 741 mmHg 72%
19:00 +30°C° 0 mm 1 mps 741 mmHg 74%
20:00 +29°C° 0 mm 1 mps 741 mmHg 75%
21:00 +28°C° 0 mm 1 mps 742 mmHg 77%
22:00 +28°C° 0 mm 1 mps 741 mmHg 78%
23:00 +27°C° 0 mm 1 mps 741 mmHg 80%

29 July, Thursday

Time Temperature Precipitation Wind Pressure Humidity
00:00 +27°C° 0 mm 1 mps 741 mmHg 81%
01:00 +27°C° 0 mm 1 mps 741 mmHg 82%
02:00 +24°C° 0 mm 0 mps 742 mmHg 84%
03:00 +24°C° 0 mm 0 mps 742 mmHg 86%
04:00 +24°C° 0 mm 0 mps 742 mmHg 85%
05:00 +25°C° 0 mm 0 mps 742 mmHg 84%
06:00 +25°C° 0 mm 0 mps 742 mmHg 83%
07:00 +28°C° 0 mm 0 mps 743 mmHg 73%
08:00 +30°C° 0 mm 0 mps 743 mmHg 63%
09:00 +33°C° 0 mm 0 mps 743 mmHg 53%
10:00 +34°C° 0 mm 0 mps 743 mmHg 47%
11:00 +36°C° 0 mm 0 mps 743 mmHg 41%
12:00 +38°C° 0 mm 0 mps 742 mmHg 36%
13:00 +40°C° 0 mm 1 mps 742 mmHg 37%
14:00 +39°C° 0 mm 1 mps 742 mmHg 38%
15:00 +38°C° 0 mm 2 mps 741 mmHg 39%
16:00 +35°C° 0 mm 1 mps 741 mmHg 46%
17:00 +34°C° 0 mm 1 mps 741 mmHg 52%
18:00 +30°C° 0 mm 0 mps 741 mmHg 59%
19:00 +29°C° 0 mm 0 mps 741 mmHg 61%
20:00 +30°C° 0 mm 1 mps 741 mmHg 63%
21:00 +30°C° 0 mm 1 mps 742 mmHg 65%
22:00 +27°C° 0 mm 0 mps 741 mmHg 67%
23:00 +26°C° 0 mm 0 mps 741 mmHg 70%

30 July, Friday

Time Temperature Precipitation Wind Pressure Humidity
00:00 +26°C° 0 mm 0 mps 741 mmHg 72%
01:00 +27°C° 0 mm 1 mps 741 mmHg 73%
02:00 +27°C° 0 mm 1 mps 741 mmHg 74%
03:00 +27°C° 0 mm 1 mps 741 mmHg 76%
04:00 +27°C° 0 mm 1 mps 741 mmHg 75%
05:00 +27°C° 0 mm 1 mps 742 mmHg 75%
06:00 +27°C° 0 mm 1 mps 742 mmHg 75%
07:00 +30°C° 0 mm 1 mps 742 mmHg 65%
08:00 +32°C° 0 mm 2 mps 742 mmHg 55%
09:00 +36°C° 0 mm 2 mps 743 mmHg 44%
10:00 +37°C° 0 mm 2 mps 742 mmHg 40%
11:00 +38°C° 0 mm 3 mps 742 mmHg 35%
12:00 +40°C° 0 mm 3 mps 742 mmHg 30%
13:00 +40°C° 0 mm 3 mps 742 mmHg 30%
14:00 +40°C° 0 mm 3 mps 741 mmHg 30%
15:00 +40°C° 0 mm 3 mps 741 mmHg 29%
16:00 +38°C° 0 mm 3 mps 741 mmHg 37%
17:00 +36°C° 0 mm 2 mps 741 mmHg 44%
18:00 +34°C° 0 mm 2 mps 741 mmHg 52%
19:00 +31°C° 0 mm 2 mps 741 mmHg 57%
20:00 +30°C° 0 mm 2 mps 741 mmHg 63%
21:00 +29°C° 0 mm 2 mps 742 mmHg 68%
22:00 +28°C° 0 mm 1 mps 741 mmHg 73%
23:00 +27°C° 0 mm 1 mps 741 mmHg 77%

31 July, Saturday

Time Temperature Precipitation Wind Pressure Humidity
00:00 +25°C° 0 mm 0 mps 741 mmHg 82%
01:00 +25°C° 0 mm 0 mps 741 mmHg 84%
02:00 +24°C° 0 mm 0 mps 741 mmHg 86%
03:00 +26°C° 0 mm 1 mps 741 mmHg 88%
04:00 +24°C° 0 mm 0 mps 742 mmHg 86%
05:00 +25°C° 0 mm 0 mps 742 mmHg 85%
06:00 +25°C° 0 mm 0 mps 742 mmHg 84%
07:00 +30°C° 0 mm 1 mps 742 mmHg 74%
08:00 +32°C° 0 mm 1 mps 742 mmHg 63%
09:00 +36°C° 0 mm 2 mps 743 mmHg 53%
10:00 +37°C° 0 mm 2 mps 742 mmHg 47%
11:00 +38°C° 0 mm 2 mps 742 mmHg 41%
12:00 +40°C° 0 mm 3 mps 742 mmHg 35%
13:00 +40°C° 0 mm 3 mps 742 mmHg 34%
14:00 +40°C° 0 mm 3 mps 741 mmHg 33%
15:00 +40°C° 0 mm 3 mps 741 mmHg 32%
16:00 +38°C° 0 mm 3 mps 741 mmHg 40%
17:00 +36°C° 0 mm 2 mps 741 mmHg 49%
18:00 +34°C° 0 mm 2 mps 741 mmHg 58%
19:00 +31°C° 0.5 mm 2 mps 741 mmHg 67%
20:00 +29°C° 0.5 mm 2 mps 742 mmHg 76%
21:00 +27°C° 0.5 mm 2 mps 742 mmHg 85%
22:00 +27°C° 0 mm 2 mps 742 mmHg 87%
23:00 +26°C° 0 mm 1 mps 742 mmHg 90%
Show more